CZ-6A DEB, 60770

Orbit data source: Space-Track

CZ-6A DEB, 60770 is space debris in LEO originally from a launch on Tue, 06 Aug 2024 UTC launched from the Taiyaun Space Center, China (TSC). Debris objects in space refer to the collection of defunct objects orbiting the Earth. Examples of debris include non-operational satellites, rocket bodies, and fragments generated from explosions, collisions, or faulty payload assembly.

Loading next visibility...
Identifier
60770, 2024-140EV
Orbit
LEO
Country
Flag of CNCN / PRC
Related business
Manufacturer
SAST
Mission
Spacecraft
Bus & Motor
Unknown
Mass
Unknown
Launch date (UTC)
2024-08-06 (2 years ago)
Launch vehicle
Unknown
Launch site
Taiyaun Space Center, China (TSC)
Object type
Payload
Rocket body
Debris
Shape & HBR
Unknown shape, 0.1 m
Radar Cross Section
Medium (>0.1 m² and <1 m²)

Expand to show TLE details & history
Last TLE update: 13 hours ago

TLE from 13 hours ago
0 CZ-6A DEB
1 60770U 24140EV  26171.30120355  .00000385  00000-0  12331-3 0  9996
2 60770  89.0230 273.9120 0032664 285.5965  74.1630 14.37359727 95451
Epoch: 2026-06-20T07:13Z
TLE epoch observation values (Epoch: 2026-06-20T07:13:43.986Z)
Latitude
-0.00007°
Longitude
-103.03907°
Altitude
764.013 km
Speed
7.475 km/s
True Right ascension
18h 15m 38s
True Declination
0° 00' 00"
Sunlit
Object was in full shadow at epoch
Visualization orbit readout
Latitude
Unknown
Longitude
Unknown
Altitude
Unknown
Speed
Unknown
Apparent Right ascension
Unknown
Apparent Declination
Unknown
Sunlit
N/A
Visualization observer readout
Local Sidereal Time
07:12:42
Azimuth
Unknown
Elevation
Unknown
Doppler factor
Unknown
Orbital elements
Apogee altitude
787.491 km
Perigee altitude
740.832 km
Semi-major axis
7,142.298 km
Eccentricity
0.00327
Inclination
89.023°
RAAN
273.912°
Arg. of periapsis
285.5965°
True anomaly
74.52349°
Mean anomaly
74.163°
Eccentric anomaly
74.34321°
Mean motion
3.59572 °/min
Orbital period
100.12 mins
BSTAR
0.00012331
Loading maneuver chart data...
Computing Atmospheric mass density...
Loading historical data...
Loading historical data...
Loading historical data...
Loading historical data...
Loading historical data...
Loading historical data...
Loading historical data...

Documentation

Showing up to 5 results
|